Theta_e
334 333 331 333 335 335 336 335 335 334 334 333 333 332 333 332 331 330 328 326 325 324 320 317 316 315 316 321 327 330 330 330 330 327 318 314 316 316 316 317 316 314 314 313 312 312 313 315 316 313 311 310 310 313 316 320 324 324 324 326 326 324 327 328 326 326 326 324 319 322 326 326 324 324 325 327 328 328 329 329 327 326 329 331 331
334 333 331 332 334 335 336 336 335 335 334 334 333 332 333 332 332 331 329 328 326 324 322 319 317 317 316 316 318 321 324 325 326 322 315 313 314 315 316 317 316 314 314 313 312 313 313 315 316 314 310 310 313 319 324 327 329 330 330 330 330 328 329 329 328 328 327 328 321 315 323 325 325 324 324 327 328 328 329 329 328 327 328 331 331
335 332 331 331 334 335 336 336 335 335 334 334 333 333 332 333 332 331 329 328 327 325 323 321 318 317 317 316 316 316 318 320 320 317 313 313 314 315 316 317 316 315 315 313 312 312 313 313 314 314 311 314 320 325 328 330 332 332 332 332 333 331 330 330 327 327 327 329 322 313 318 323 324 324 324 326 328 329 329 329 329 328 328 330 331
336 333 331 331 334 335 336 336 335 335 334 334 334 333 333 332 332 331 330 329 328 327 325 322 320 317 316 316 317 316 315 315 315 314 313 314 315 315 315 316 317 316 315 313 312 313 313 312 313 314 313 318 325 328 331 333 333 333 334 334 334 333 332 331 329 327 328 329 325 314 313 320 325 325 325 325 326 328 329 329 329 328 325 327 330
337 333 331 330 333 335 335 336 336 335 334 335 334 333 333 333 332 331 330 329 328 327 326 323 321 318 314 313 315 316 317 316 314 314 314 315 316 315 315 315 317 316 315 314 313 313 312 312 312 312 315 321 326 329 332 334 335 335 335 335 335 335 333 332 330 329 330 331 327 321 313 314 323 326 325 323 322 325 327 327 328 327 324 324 327
338 335 331 330 333 334 335 335 335 336 335 334 334 333 333 333 332 332 330 329 328 328 326 322 320 317 313 312 312 314 317 318 318 317 317 318 318 316 316 315 316 317 316 316 314 312 312 312 311 311 315 320 325 329 332 333 334 335 336 336 335 335 334 333 332 330 330 331 328 326 318 309 316 322 325 323 320 323 325 324 324 324 322 322 325
339 335 331 330 332 334 335 335 335 336 335 335 334 333 333 333 332 332 330 329 328 327 324 321 319 316 313 312 312 313 316 321 322 322 321 319 318 318 318 317 316 316 316 317 315 313 312 311 311 311 313 317 324 328 331 333 334 335 335 335 335 334 334 332 332 330 329 329 328 327 319 309 311 316 324 325 322 322 321 320 321 321 320 319 321
339 336 331 329 330 332 334 334 335 335 335 335 334 334 334 333 333 332 331 329 328 325 322 320 317 315 314 313 314 314 315 321 326 325 323 320 318 318 318 319 317 316 316 316 316 315 312 311 311 311 312 316 323 329 332 334 334 335 336 336 336 334 332 331 330 329 328 328 328 327 316 308 309 311 320 323 322 321 319 317 317 318 317 316 317
339 335 332 330 329 330 331 333 334 335 335 335 335 334 334 333 333 332 332 328 325 323 320 318 316 315 315 315 315 316 315 319 324 325 323 320 318 317 318 318 317 316 315 315 316 316 314 312 310 310 311 316 322 328 332 334 334 334 335 335 335 332 330 330 330 330 329 328 328 326 313 308 309 310 318 320 318 317 315 314 314 316 317 315 315
337 335 332 330 329 329 329 331 332 334 335 335 335 334 334 334 333 333 332 327 323 321 319 318 317 317 316 317 317 318 318 319 322 323 321 319 318 317 317 317 317 317 315 315 315 315 315 313 311 310 312 316 321 326 331 333 333 333 334 333 332 330 329 329 331 330 330 329 328 322 312 309 309 311 319 319 317 316 316 315 315 315 316 314 316
337 335 333 331 329 328 328 329 331 333 334 335 335 334 334 334 333 333 330 325 323 321 319 319 319 319 319 319 320 320 321 320 320 320 319 318 317 316 316 317 317 317 315 315 315 315 315 315 313 310 312 316 320 325 329 330 330 332 333 332 330 329 329 330 330 330 330 330 327 322 313 309 308 309 314 315 314 315 316 315 314 314 313 313 313
336 335 333 331 329 328 327 327 329 332 334 335 334 334 334 334 333 333 328 324 322 321 321 322 322 323 323 323 323 323 322 320 320 319 317 316 316 316 316 316 316 316 315 315 314 314 314 315 315 311 312 316 319 324 327 328 330 332 333 332 331 330 329 330 331 331 331 330 330 326 316 309 308 308 310 310 308 311 312 312 312 310 309 310 309
336 335 333 331 330 327 325 325 327 330 332 333 334 334 334 334 334 331 326 323 322 322 323 324 325 326 328 328 328 329 327 324 322 320 319 318 317 316 317 317 317 316 316 315 314 314 314 315 316 313 312 315 317 323 328 330 332 333 333 332 331 330 330 331 332 331 331 331 329 323 314 309 308 308 308 308 308 309 309 309 309 308 307 307 307
336 335 334 332 330 326 324 324 326 330 332 333 334 335 334 334 333 329 324 322 323 324 325 326 328 329 329 330 331 332 333 331 329 327 325 322 321 320 320 320 320 320 319 318 316 315 314 314 317 315 312 314 317 323 328 330 332 332 333 333 331 330 330 331 332 331 331 331 326 318 312 310 309 307 308 308 309 309 308 309 308 309 308 307 307
337 336 334 332 330 326 324 324 326 330 333 334 335 335 334 333 332 327 323 323 325 326 326 327 330 331 330 331 331 333 334 333 333 332 330 327 326 326 325 325 324 324 323 322 320 318 316 314 316 316 313 313 317 324 329 331 332 332 333 333 331 330 330 331 332 332 332 330 327 322 315 310 310 308 308 308 308 308 308 308 309 309 308 308 308
337 336 335 333 330 326 325 324 327 330 333 335 335 336 334 333 331 326 324 324 327 327 327 328 330 331 330 331 332 333 333 332 333 333 331 329 329 329 328 328 327 326 325 324 323 321 320 316 314 315 314 313 317 325 330 331 332 333 333 333 331 329 331 331 332 333 333 331 329 326 319 312 311 310 308 308 308 308 308 308 308 308 308 308 308
336 336 335 333 330 326 325 326 328 331 333 335 335 336 334 333 331 326 324 326 328 328 328 330 330 331 331 332 333 333 332 332 332 333 332 331 330 330 329 329 328 328 326 324 323 322 322 320 316 314 314 314 317 326 331 331 332 333 333 332 332 331 331 332 333 333 332 332 330 327 322 315 311 311 309 308 307 307 307 308 308 308 308 308 308
336 336 335 333 330 327 326 326 328 331 334 335 336 336 333 332 330 325 326 328 329 329 330 332 331 331 331 332 332 332 332 331 332 333 333 330 329 328 328 328 329 328 326 324 323 322 322 322 320 315 313 314 317 326 332 332 332 333 333 332 332 332 332 333 333 333 332 331 328 325 322 317 313 312 311 309 308 307 307 307 307 308 308 308 308
336 336 335 334 330 328 326 327 328 331 333 335 336 334 333 332 328 325 328 329 329 330 332 331 330 330 331 331 331 331 331 330 331 332 330 328 326 327 327 328 329 328 326 324 323 322 322 321 321 319 315 313 316 323 329 332 333 333 333 332 332 332 332 332 332 332 332 330 327 325 321 317 314 313 312 310 308 308 307 306 306 307 307 308 308
336 335 335 334 331 329 327 327 329 330 333 335 335 333 332 331 327 327 329 330 330 331 332 331 330 328 328 329 329 330 330 329 330 330 328 327 326 328 329 328 328 328 325 324 324 323 323 321 320 321 318 313 314 318 324 331 333 334 334 332 332 332 331 332 331 332 331 329 327 321 316 314 314 314 313 311 310 308 307 307 306 306 306 307 307
336 336 335 333 331 329 328 328 328 329 330 332 333 332 331 329 327 329 330 331 332 331 331 330 328 326 325 326 327 328 328 329 329 328 328 326 326 328 328 326 325 325 324 323 323 323 322 322 320 320 320 315 313 315 322 332 334 334 334 332 331 331 332 332 331 331 330 329 325 317 313 313 314 315 314 312 310 309 308 307 307 306 306 306 306
336 335 334 334 332 330 329 329 328 328 329 330 332 332 330 328 328 330 330 331 332 331 331 329 327 328 327 327 327 328 329 328 328 328 326 325 325 326 325 324 323 322 322 321 321 321 320 321 320 319 320 317 314 313 323 333 333 333 333 331 331 332 332 331 331 331 330 328 323 317 315 315 314 314 315 313 311 310 309 308 307 307 306 306 306
337 335 334 334 333 331 330 330 329 328 328 329 331 332 329 328 329 330 331 332 332 331 330 327 328 330 329 327 328 327 328 328 327 327 326 325 325 325 324 323 323 321 320 320 319 319 318 319 320 319 319 319 315 315 325 333 333 333 333 331 332 331 331 331 331 331 330 327 323 321 318 316 315 314 315 314 314 314 311 308 307 307 307 306 306
339 337 335 334 333 332 330 330 329 328 329 330 331 333 330 329 329 330 331 332 331 331 329 327 329 329 327 327 327 327 327 328 329 328 327 327 325 324 323 322 322 321 320 320 319 319 318 318 319 318 319 320 319 320 328 334 332 332 333 332 331 330 330 331 331 330 330 327 326 324 319 316 315 314 314 314 320 320 314 309 308 307 307 306 306
340 337 335 333 333 332 331 331 330 330 331 331 331 332 330 329 329 331 332 332 331 329 326 326 329 328 327 328 328 327 328 329 330 329 329 328 326 324 323 321 320 320 320 319 319 318 318 319 318 319 322 324 323 324 329 333 330 330 332 331 329 328 330 330 330 329 329 328 327 325 319 316 315 315 314 317 323 322 316 311 309 308 307 306 306
340 338 335 334 333 332 332 332 331 333 332 330 330 330 330 329 329 331 332 331 330 328 325 327 329 328 329 329 329 328 327 329 329 329 329 328 327 325 325 322 320 321 321 320 319 319 320 320 321 324 327 328 327 325 328 330 328 330 333 331 328 328 329 329 329 330 330 329 327 324 320 316 314 314 315 320 325 322 316 312 310 308 307 307 306
340 338 335 334 333 332 333 334 333 333 329 328 330 329 329 329 330 331 331 330 328 326 326 328 329 329 330 329 328 328 327 327 328 328 328 327 326 326 326 325 323 324 325 323 321 322 325 325 326 329 330 330 329 326 325 325 326 329 333 331 329 329 329 330 330 330 330 329 326 323 320 317 314 314 317 323 325 321 315 311 309 308 307 307 306
340 338 335 333 332 331 334 334 332 330 327 327 330 329 328 329 330 331 331 329 327 326 328 329 330 331 331 330 329 329 328 328 328 328 327 326 327 326 326 327 326 326 328 327 325 326 328 328 329 330 330 330 329 327 325 324 326 329 331 331 330 331 331 331 331 331 330 328 325 322 319 316 314 314 317 321 323 318 313 310 309 307 306 307 306
339 336 334 333 331 331 333 333 331 329 328 328 328 328 329 331 331 330 329 327 325 327 329 330 331 331 330 329 329 328 329 329 329 328 326 327 327 325 325 326 326 327 327 327 328 328 328 329 330 330 330 330 329 329 327 326 327 329 330 330 330 332 331 331 331 331 330 328 325 322 320 316 314 313 315 318 320 318 313 309 309 309 308 307 307
340 337 335 335 333 332 332 332 331 329 328 328 329 329 330 331 330 330 328 325 325 327 329 330 330 330 330 329 329 329 329 329 328 327 326 327 327 325 325 326 326 326 325 326 329 329 329 330 330 330 330 329 329 330 329 329 329 330 331 331 331 332 332 331 331 331 329 327 325 323 321 317 313 312 312 314 316 319 316 310 308 310 310 308 307
340 338 337 337 336 334 333 332 333 331 329 330 331 330 331 330 330 329 327 325 327 328 328 329 329 329 329 329 329 329 328 328 328 327 326 327 328 326 326 327 327 326 326 327 328 329 329 330 331 330 329 329 329 328 329 330 330 331 332 331 331 331 331 331 331 330 329 327 326 325 321 318 315 312 311 311 314 318 317 312 309 309 310 309 308
336 333 334 338 338 336 335 334 334 332 330 332 333 332 332 330 329 328 326 326 327 326 326 327 328 328 328 328 329 328 326 326 328 328 327 327 327 326 327 327 327 326 326 327 328 329 329 329 330 330 329 329 328 328 328 329 329 330 331 331 331 331 330 330 330 330 330 328 327 325 322 319 317 315 312 313 315 318 316 313 313 312 311 312 311
331 330 333 338 338 338 337 336 335 333 332 333 334 332 332 330 327 327 327 326 326 325 324 325 326 326 326 328 329 327 325 326 327 328 329 328 326 326 327 326 326 327 326 328 328 328 329 329 329 329 329 328 328 328 327 327 328 329 330 331 331 331 330 330 330 330 329 328 327 326 324 322 321 318 316 316 318 319 318 317 318 318 317 317 316
330 331 334 337 338 339 338 337 336 335 334 334 334 332 330 329 326 327 327 325 325 325 324 324 324 325 326 327 329 327 325 325 326 326 329 329 326 327 327 326 326 326 327 328 327 327 327 327 328 329 328 328 327 326 326 327 329 329 330 330 330 330 329 330 331 329 327 328 328 327 327 326 324 322 320 321 321 321 322 321 322 322 323 323 322
333 333 335 337 337 338 337 337 336 336 335 334 333 330 328 327 326 327 328 325 325 325 324 324 324 325 327 328 328 326 324 324 325 326 328 328 327 327 327 327 326 326 327 327 327 327 328 327 328 328 327 327 326 326 327 328 329 329 329 329 329 329 329 330 329 326 325 327 328 326 326 326 326 325 324 323 323 323 323 323 324 324 325 325 325
335 335 336 336 336 336 336 337 336 335 334 333 331 329 328 327 326 327 326 324 325 326 327 327 327 327 328 328 328 325 324 324 325 326 327 327 327 326 326 327 327 327 326 326 327 328 328 327 327 328 327 326 326 327 328 329 329 329 329 328 328 329 329 329 326 324 325 326 326 325 325 325 326 326 325 325 325 324 325 325 326 326 326 326 326
336 336 336 335 334 335 335 336 335 333 332 331 330 329 328 327 326 325 324 325 327 329 328 327 327 326 326 326 327 326 325 325 326 327 327 327 327 327 327 327 327 327 326 325 327 328 328 328 327 327 327 326 326 328 328 329 329 329 328 328 328 329 330 328 325 325 325 324 325 325 325 325 326 327 326 325 325 325 325 326 326 326 326 325 325
337 336 335 333 332 333 335 335 333 331 330 330 330 329 329 328 327 326 327 328 329 328 327 325 325 325 325 326 326 326 325 326 327 328 327 327 327 328 327 327 328 327 327 327 327 327 328 329 328 327 327 327 327 327 328 329 329 329 328 328 329 329 329 328 326 326 326 325 325 326 326 325 326 327 326 325 326 326 326 325 325 325 325 324 324
336 335 333 332 331 331 333 332 330 329 329 329 328 328 327 328 328 328 328 327 326 326 326 325 326 325 324 326 326 327 327 327 328 328 327 326 327 328 328 328 329 328 328 328 327 327 327 328 328 327 326 327 326 327 328 329 329 328 328 328 328 329 329 328 327 327 326 326 326 326 326 326 326 326 326 326 326 326 326 326 325 324 324 324 323
335 333 333 331 330 330 330 330 329 328 328 328 327 326 326 327 327 326 325 326 326 327 327 327 327 326 326 328 329 329 328 328 327 327 327 328 328 328 328 328 329 329 329 328 327 327 326 327 328 327 326 326 326 327 328 328 328 328 329 329 329 329 329 328 327 326 326 325 326 326 325 325 324 324 326 326 326 327 326 326 325 325 325 324 324
334 333 332 330 329 328 329 329 329 328 328 327 326 326 326 326 325 325 325 326 328 328 327 328 328 328 329 330 330 329 327 327 326 327 327 328 328 328 328 328 329 329 328 327 327 326 325 327 329 327 326 326 326 327 328 328 328 328 329 329 329 328 328 328 327 325 324 323 324 325 323 321 319 321 324 325 325 325 324 324 325 324 324 325 325
333 332 330 329 327 327 327 328 328 328 327 326 324 324 324 325 325 326 326 328 328 327 326 327 328 328 329 329 329 327 325 325 326 327 327 326 326 327 327 327 328 328 327 327 327 325 325 328 329 328 327 327 328 328 328 328 328 328 328 328 329 328 328 328 326 325 323 322 322 323 321 319 318 319 322 324 324 323 323 323 324 324 324 325 325
333 332 330 328 327 327 326 326 326 326 324 323 322 323 324 325 325 326 327 327 328 327 325 326 328 327 327 328 327 326 326 325 325 327 326 325 326 327 326 327 327 327 327 326 325 325 327 328 328 329 328 327 329 328 328 328 328 328 327 328 328 328 328 327 326 325 324 323 323 323 323 321 320 319 320 321 322 322 322 323 323 324 324 324 323
332 331 329 328 327 327 327 325 325 324 323 323 323 324 325 326 327 327 328 328 326 326 325 326 327 326 326 327 327 327 326 326 326 326 326 325 327 327 326 327 327 326 325 324 323 324 327 328 327 328 327 326 328 328 328 329 328 328 327 328 328 328 327 327 326 326 325 324 323 323 323 322 322 321 319 320 321 321 322 323 323 323 322 322 322
329 328 327 327 327 327 327 325 324 324 324 325 325 325 325 326 328 329 329 327 325 324 325 325 327 327 327 327 327 327 327 326 326 326 326 326 327 327 326 327 325 324 324 323 324 324 326 327 326 327 326 326 327 327 328 329 328 328 327 327 327 327 327 326 325 324 324 324 323 323 323 322 322 321 321 320 321 321 321 321 322 322 322 321 321
327 327 327 327 327 326 325 324 324 325 325 326 326 325 326 325 326 328 328 326 325 324 322 322 323 324 326 327 326 326 326 326 326 326 326 325 326 326 325 325 324 324 324 324 325 325 325 326 326 326 326 326 326 326 327 328 328 327 327 326 326 326 326 325 324 322 323 323 323 323 323 322 322 321 321 320 320 321 321 321 322 321 321 320 320
328 328 327 327 327 326 324 324 324 325 326 326 325 326 326 325 325 327 327 324 323 323 322 322 321 319 320 322 323 323 323 322 323 325 327 326 326 326 326 325 325 325 325 325 325 325 324 325 325 326 326 326 327 327 327 327 327 327 327 327 325 325 325 324 323 322 322 322 322 323 323 322 322 321 321 319 319 320 319 320 320 320 319 319 320
328 328 327 327 326 325 324 323 324 327 327 326 326 326 325 326 327 326 325 323 319 321 323 322 320 317 315 318 319 319 319 318 317 319 323 326 326 325 324 324 324 325 325 324 324 325 325 325 326 326 327 327 327 328 328 327 327 327 327 327 325 324 324 324 323 322 322 321 322 323 322 321 321 321 320 319 319 319 318 318 318 317 317 316 317
328 327 326 327 326 325 324 323 326 328 326 325 326 325 325 325 326 323 322 320 316 319 322 322 321 317 315 318 320 318 317 317 316 315 316 320 324 324 323 322 323 324 325 325 324 324 324 324 326 326 326 326 327 328 328 327 326 326 325 326 325 324 324 323 323 322 321 322 322 321 320 320 320 321 321 319 319 319 318 316 315 315 314 314 313
327 325 325 326 326 325 323 322 326 327 326 326 325 323 323 322 320 317 316 316 315 319 323 323 321 316 315 321 322 321 319 318 319 318 316 317 317 319 321 322 323 324 325 325 324 324 323 324 325 326 326 326 326 327 327 326 326 325 325 325 324 323 324 323 322 322 321 321 321 320 320 318 318 320 321 319 319 318 316 314 313 312 313 314 313
326 324 324 324 325 324 322 321 325 326 325 324 322 321 322 319 316 316 316 314 314 316 319 320 317 312 314 319 322 323 321 320 322 322 321 320 317 316 318 320 322 323 323 323 323 324 324 325 326 326 326 325 326 326 326 326 326 325 325 325 324 322 324 323 322 322 321 321 321 318 317 316 315 318 320 319 318 316 314 313 311 309 310 311 310
Wind_Speed
28 26 27 29 27 27 26 26 27 27 26 25 24 23 22 21 22 22 23 22 22 22 22 23 23 23 22 22 21 19 18 17 16 15 13 13 15 14 14 14 14 15 15 14 13 14 12 13 16 19 20 21 22 23 23 24 24 24 23 22 21 22 22 22 23 25 26 26 24 19 17 18 19 20 20 18 19 20 19 19 20 21 19 19 19
29 27 27 28 28 27 26 26 26 26 26 25 24 23 21 21 21 22 22 21 21 21 22 23 23 23 23 22 21 20 19 18 17 15 14 14 14 14 14 14 15 15 15 14 14 14 13 14 17 21 22 23 25 25 24 24 25 24 24 22 21 21 22 22 22 24 24 24 24 20 18 20 19 19 19 19 18 19 19 18 19 20 18 17 18
28 27 27 27 28 27 26 26 26 26 25 25 24 23 21 20 20 21 21 21 20 21 21 22 22 22 22 22 21 21 20 19 18 16 14 14 14 14 14 14 14 15 14 14 14 14 14 15 17 20 23 25 25 25 25 24 25 24 23 22 21 21 21 20 21 23 23 23 24 22 20 21 20 19 19 18 17 17 17 17 17 17 17 17 18
25 27 27 27 28 27 26 25 26 25 25 25 23 22 21 20 20 20 21 20 19 19 19 20 21 21 21 21 20 20 20 19 18 16 14 13 13 13 14 14 14 14 14 13 13 14 14 16 19 21 24 25 25 25 25 24 24 23 22 22 21 19 19 19 20 21 21 21 23 22 20 20 20 19 18 16 16 16 15 15 15 15 16 16 16
25 26 26 27 28 27 26 25 25 25 25 24 23 22 20 19 19 19 20 19 18 18 18 18 19 19 19 19 19 19 19 18 17 16 14 13 12 12 13 14 13 13 13 13 13 14 15 17 20 22 24 25 24 25 25 24 22 21 20 20 20 17 16 17 17 18 18 20 21 21 20 19 20 17 16 15 16 16 14 14 14 15 15 15 14
24 25 26 28 28 28 26 26 25 25 25 24 23 22 20 19 19 18 18 18 18 17 17 17 18 18 18 18 18 18 18 17 17 16 15 13 11 11 11 12 12 12 12 12 13 13 14 17 18 20 23 23 23 24 24 24 22 21 19 18 18 16 15 15 15 15 17 18 19 20 18 17 20 18 16 16 16 16 14 14 15 15 15 14 13
22 25 27 28 28 28 26 26 25 25 24 23 23 21 20 19 18 18 17 17 17 17 16 17 17 17 17 17 17 17 17 17 16 16 15 14 12 11 10 11 11 11 11 11 12 13 14 16 17 19 21 21 22 24 24 24 23 21 19 18 16 14 13 14 13 13 16 17 17 19 17 16 20 19 16 16 17 17 16 15 14 14 14 14 13
23 25 26 27 27 27 26 25 24 24 24 23 23 21 20 19 18 17 16 16 16 16 17 16 16 15 16 16 16 16 16 16 15 15 15 14 12 11 10 11 11 11 10 10 11 12 14 16 16 17 19 20 22 23 24 23 22 20 19 17 14 12 12 14 14 14 16 16 16 18 17 14 18 19 16 17 17 17 17 16 15 14 14 14 12
24 25 25 25 26 26 26 25 24 24 23 23 22 21 20 19 18 16 15 15 15 16 17 16 15 15 15 15 16 16 16 16 15 14 14 13 12 11 10 10 10 10 9 9 9 10 12 15 16 16 18 20 21 21 22 22 21 19 18 15 12 10 12 14 14 15 15 16 15 17 16 13 16 19 18 19 19 18 18 19 18 16 15 14 12
24 25 24 24 25 25 25 24 23 23 22 22 22 21 20 19 18 16 15 15 16 17 17 16 16 15 15 15 15 16 16 15 14 13 12 12 11 10 9 9 9 9 9 8 8 9 10 13 15 17 18 19 19 20 21 22 21 19 16 12 10 10 12 14 14 14 15 15 15 17 15 11 15 19 18 18 19 19 20 21 20 18 17 15 13
24 25 24 24 24 24 24 24 23 22 22 22 22 21 20 19 18 16 15 15 16 17 17 17 17 16 16 16 16 16 16 15 14 13 13 12 11 10 10 9 9 9 9 8 8 8 10 12 13 16 18 18 18 19 21 21 20 18 14 10 8 9 11 13 14 14 14 14 14 16 15 11 14 18 17 18 19 19 20 20 21 20 20 18 17
26 25 24 24 24 24 24 24 23 23 22 22 21 21 20 19 18 16 15 15 16 16 17 17 18 17 17 17 16 16 15 15 14 14 13 13 12 12 12 11 10 9 9 8 7 8 9 11 12 15 17 17 17 19 20 21 20 17 12 8 6 8 9 12 13 14 13 12 13 16 15 11 13 16 17 18 19 20 20 20 20 20 21 20 20
27 25 24 24 23 23 23 23 23 23 22 22 21 21 20 19 18 16 16 16 16 16 16 17 18 18 17 17 16 16 15 15 14 14 13 13 12 12 12 11 11 10 9 9 8 8 8 10 12 14 16 16 16 18 19 21 20 17 12 8 6 7 8 10 12 12 11 12 13 15 15 11 12 14 15 17 18 19 19 19 20 21 21 21 21
27 26 25 23 23 23 23 23 23 23 22 21 21 20 20 19 17 16 16 16 16 15 15 16 17 17 17 16 16 16 15 15 14 14 13 12 12 11 11 11 10 10 9 9 8 8 8 8 11 15 16 16 16 17 19 20 20 17 12 8 5 6 7 8 11 11 10 11 13 15 15 12 11 12 13 15 17 17 18 19 19 20 20 20 20
26 26 24 23 23 23 23 22 23 22 21 20 20 20 19 18 17 16 16 16 16 15 14 14 15 16 16 16 15 15 15 15 14 13 13 13 12 12 11 10 10 10 9 9 8 8 8 8 10 14 17 17 17 18 18 19 19 17 12 8 5 5 6 7 9 9 9 10 11 14 15 13 10 10 11 12 14 15 16 17 18 18 19 19 19
25 25 24 24 23 24 23 22 22 22 21 20 19 19 19 18 16 16 16 16 16 15 13 13 13 14 15 15 15 14 15 14 13 12 13 13 12 11 11 10 10 10 9 9 8 7 7 7 9 12 16 17 19 19 19 19 19 16 11 7 5 4 6 6 7 8 8 9 10 13 14 14 11 9 10 11 12 13 15 16 16 17 18 18 18
24 24 23 24 24 24 23 22 22 21 20 19 19 19 18 17 16 16 16 16 16 14 13 12 12 13 13 14 14 14 14 14 13 12 12 12 11 10 9 8 8 9 8 8 8 7 7 7 8 10 13 17 19 20 19 19 19 16 10 7 5 4 6 6 7 8 8 8 10 12 13 14 12 9 9 10 10 11 13 14 15 15 16 17 18
24 23 23 24 24 24 23 23 22 21 20 20 20 19 18 17 16 16 17 16 15 14 12 12 12 12 12 13 14 13 13 13 13 13 12 12 10 9 7 7 7 8 8 8 7 7 7 7 7 8 11 15 19 20 20 19 19 17 10 7 5 5 6 6 7 7 7 9 10 11 12 13 12 9 8 8 9 9 11 12 13 14 14 16 16
24 23 23 24 25 24 24 23 22 22 22 21 21 19 18 17 16 16 16 16 15 14 12 12 12 12 12 13 13 13 13 13 13 13 12 11 9 9 8 7 7 7 7 7 6 6 7 7 6 7 8 13 18 20 19 18 19 17 11 7 6 6 6 5 6 6 7 9 11 11 11 12 11 9 7 7 8 8 9 10 11 12 13 13 14
24 24 23 24 24 24 24 23 23 23 23 22 21 20 18 16 16 17 17 16 15 14 13 12 12 12 12 12 13 13 13 13 13 13 12 10 9 9 9 8 7 6 6 6 5 5 6 6 6 6 7 10 16 19 19 19 19 16 12 9 6 5 5 5 4 5 7 9 11 12 11 10 10 9 8 6 6 7 8 9 10 11 11 11 11
24 24 24 24 24 24 24 24 24 23 23 22 21 20 19 18 17 18 17 16 16 15 14 13 13 13 13 14 13 13 14 13 13 12 11 11 10 10 9 8 7 5 5 4 4 4 4 5 6 6 7 8 13 19 20 20 20 15 11 10 7 4 4 5 4 4 6 8 10 11 10 10 10 9 8 6 5 6 6 7 9 9 10 10 10
25 25 24 24 24 24 24 24 24 23 24 23 22 21 19 19 19 18 18 16 16 15 14 13 14 14 14 14 14 14 14 13 12 11 11 10 10 9 8 7 6 5 5 4 4 4 4 4 5 6 8 9 12 18 21 21 20 14 10 10 7 5 4 5 5 4 5 7 8 9 10 9 10 9 8 6 5 4 4 5 7 7 8 9 9
25 25 24 24 24 24 24 24 24 23 24 24 23 22 21 20 20 19 18 17 16 15 15 14 14 14 14 14 14 13 13 12 10 10 9 10 10 9 8 7 6 6 5 5 4 4 4 4 5 6 8 11 14 19 22 22 19 12 9 9 8 6 4 5 4 3 3 5 6 9 10 9 9 9 8 6 4 3 4 5 5 6 6 7 8
22 23 24 25 24 24 24 24 24 24 25 25 23 21 21 21 21 20 18 18 17 15 15 15 15 13 13 12 12 12 11 10 10 9 9 9 10 9 7 6 7 7 6 5 4 5 5 5 6 7 9 12 16 20 23 22 18 11 9 9 8 5 3 3 1 2 2 3 5 7 9 8 8 7 7 6 4 4 5 5 5 5 5 6 7
21 22 24 25 25 25 24 24 24 24 24 23 22 20 21 22 22 21 19 18 17 16 15 15 14 13 12 11 10 10 9 9 9 9 8 8 8 7 6 6 7 7 6 5 4 6 7 7 8 10 13 14 16 19 21 21 17 11 9 9 7 5 2 1 1 2 3 4 4 5 6 6 5 6 6 4 4 3 3 4 5 5 5 5 5
20 22 25 25 25 25 24 24 24 24 24 23 23 21 22 22 22 21 19 18 17 17 16 15 13 13 12 10 9 9 9 9 9 7 7 7 7 6 6 7 8 8 7 6 6 8 10 11 14 16 17 16 16 18 19 19 15 10 10 9 7 6 4 3 2 3 3 3 4 4 5 5 4 4 4 4 4 3 2 3 4 5 5 5 5
19 21 24 24 25 25 23 24 24 24 25 25 24 23 22 22 21 20 19 17 16 16 16 15 13 12 11 10 10 9 8 8 8 7 6 5 5 6 6 7 9 9 8 7 9 11 13 15 17 17 16 16 16 18 18 18 15 11 10 9 8 7 6 4 3 3 2 3 4 4 4 4 4 4 3 4 4 2 2 3 3 5 6 6 5
19 21 23 23 24 24 23 23 24 25 26 26 26 23 22 21 20 20 19 17 16 16 16 15 13 11 11 11 10 7 7 7 6 5 4 5 5 6 7 7 9 9 9 8 9 12 15 15 16 15 14 14 15 16 17 17 15 12 10 9 9 8 6 5 4 3 2 2 2 3 3 3 4 4 3 2 2 2 3 3 4 6 6 6 5
17 20 20 21 22 23 23 22 25 25 25 25 25 22 20 19 19 19 18 18 17 17 16 14 12 11 11 11 9 7 6 6 4 4 4 5 6 6 7 7 8 9 10 9 10 11 13 14 15 14 14 13 13 14 15 16 15 12 10 9 8 8 7 6 4 3 2 2 1 2 3 3 4 4 4 3 2 2 3 4 4 6 7 6 5
15 17 17 19 20 23 24 23 25 24 24 24 22 21 20 20 19 19 19 18 19 18 16 14 12 11 11 10 8 7 6 5 4 3 4 5 5 5 5 7 8 9 9 9 9 10 12 14 14 13 13 13 13 13 14 13 12 11 10 8 8 8 7 6 4 3 2 1 1 2 3 4 5 5 5 5 4 3 3 4 4 5 6 6 5
13 12 14 19 20 23 25 26 27 26 25 23 19 20 20 21 21 20 20 19 20 18 15 15 13 11 10 9 8 7 6 4 4 4 5 6 5 4 4 5 7 9 9 9 9 10 11 13 13 12 11 12 13 13 12 9 10 12 10 7 8 9 8 7 5 3 2 2 2 3 3 4 5 6 6 6 5 4 4 6 6 5 6 6 5
12 11 12 18 21 22 24 27 28 27 26 21 17 20 20 20 21 20 20 20 20 18 15 14 12 10 8 8 7 6 5 5 4 5 6 6 5 4 4 5 7 8 8 8 8 9 10 11 12 10 10 12 13 12 9 8 10 11 10 7 7 8 8 7 7 5 4 2 1 2 4 5 6 6 7 7 6 6 5 7 8 8 8 7 7
13 12 12 16 20 22 23 24 25 25 24 20 18 21 20 20 21 19 19 19 18 17 16 14 11 8 7 7 7 5 5 5 5 5 6 5 4 4 4 5 7 7 7 8 8 8 9 10 11 10 10 11 11 10 9 10 11 11 10 7 7 7 7 7 8 7 4 3 2 4 5 5 5 6 7 8 8 7 6 7 7 7 8 8 8
13 14 14 15 17 20 21 21 21 20 19 19 21 22 20 21 21 20 20 18 16 15 15 15 12 8 8 8 7 6 5 4 5 6 6 5 5 5 4 4 5 7 8 8 8 7 8 9 10 10 9 9 9 8 9 11 11 9 8 7 7 7 7 8 8 5 3 2 4 5 4 4 5 6 7 8 7 7 6 6 5 5 5 6 7
14 14 15 15 16 17 18 19 17 17 16 18 22 22 20 20 20 20 21 18 16 15 14 14 12 9 8 7 7 6 5 4 5 6 6 5 6 6 5 4 5 6 8 9 8 7 7 8 10 11 10 9 8 8 10 10 8 7 7 7 8 7 8 8 5 3 2 4 5 4 4 4 5 5 5 6 6 6 6 5 5 5 5 4 4
14 13 14 15 15 15 16 17 15 15 17 20 22 21 20 20 20 20 20 18 16 15 13 11 10 9 8 8 7 6 5 5 6 6 6 6 7 7 5 5 5 6 8 9 9 8 6 7 9 11 11 10 9 10 11 9 7 7 7 7 7 7 9 8 4 2 4 7 6 4 4 4 4 4 5 5 6 6 5 6 5 5 4 4 2
14 14 15 16 15 16 17 17 17 18 20 22 23 21 21 20 20 19 17 15 15 14 12 10 9 9 8 8 8 7 6 6 7 7 7 7 7 8 7 6 6 6 7 7 7 7 6 6 7 10 10 10 11 12 11 10 8 8 8 8 8 8 8 7 5 3 6 7 6 5 4 4 3 4 5 5 5 6 6 6 5 5 4 4 2
14 16 17 17 18 19 20 20 21 21 22 23 23 22 21 19 18 17 15 14 14 13 11 9 9 8 9 9 8 8 8 8 8 7 7 7 8 8 8 7 6 6 6 6 7 7 6 6 6 8 8 9 10 11 11 11 10 10 10 10 9 8 6 6 6 5 7 6 5 4 4 4 2 2 3 3 4 4 4 4 4 4 3 1 0
16 19 20 20 21 22 23 24 24 23 24 24 22 21 21 19 18 16 16 15 13 12 10 9 9 8 9 9 8 8 8 8 7 7 7 7 8 8 9 7 5 6 6 7 8 8 8 7 6 7 9 8 8 9 11 12 12 12 12 11 10 8 5 5 6 6 6 6 6 4 3 3 2 1 1 1 2 3 3 4 4 3 3 3 4
19 22 24 24 24 24 26 26 25 24 25 25 23 22 22 20 19 18 17 16 14 13 11 11 10 9 9 8 7 7 7 8 8 7 7 6 7 8 8 7 5 5 7 8 8 8 9 8 8 9 9 10 9 9 11 12 13 13 13 12 12 9 5 5 5 7 7 7 6 5 4 2 1 2 1 0 1 2 3 4 5 5 5 5 5
22 24 27 26 25 25 26 27 26 25 26 25 23 23 23 21 19 19 18 17 16 14 12 11 10 9 9 7 7 7 6 7 7 8 8 7 6 7 9 8 6 6 8 9 9 10 9 8 9 10 9 11 12 11 12 12 13 14 14 13 11 9 8 6 7 10 9 8 7 6 4 3 3 4 3 2 1 1 2 4 5 5 6 5 5
25 27 28 27 25 25 26 27 27 25 23 22 22 22 21 20 20 20 19 18 15 12 11 10 9 9 8 7 7 7 6 6 7 7 8 7 7 8 9 8 7 7 10 11 11 11 11 9 10 11 10 11 12 12 13 12 12 12 13 12 11 10 9 9 9 10 11 10 9 7 5 4 4 5 5 4 3 2 1 2 3 4 4 4 4
27 28 28 26 25 26 25 26 26 24 22 21 22 22 21 21 21 21 19 17 13 10 9 9 9 9 8 8 7 7 7 7 7 8 8 8 8 8 8 7 7 9 11 12 12 13 12 10 11 11 11 11 11 11 11 11 11 12 12 12 12 11 11 11 9 9 9 10 8 7 7 7 6 5 5 4 3 2 2 2 3 3 2 2 3
29 30 29 27 26 27 26 25 25 24 23 23 24 24 24 23 21 20 18 16 13 11 10 10 9 9 9 9 8 8 8 8 7 8 8 8 9 9 7 7 9 10 11 11 11 13 13 12 12 11 10 11 11 10 10 11 11 12 13 12 12 12 11 10 10 9 8 8 7 6 7 8 8 7 6 5 2 1 2 2 2 1 1 2 2
30 30 28 26 26 26 26 25 24 24 25 26 27 26 26 24 23 22 20 17 15 14 13 12 10 10 10 10 8 8 8 8 8 8 8 8 9 9 7 8 10 10 10 10 11 13 14 13 12 12 11 11 10 10 12 13 12 12 12 11 11 10 10 12 13 11 8 8 8 5 5 7 7 8 6 4 3 3 3 3 2 1 0 0 0
29 28 25 24 25 26 25 25 24 25 27 28 28 27 25 25 25 25 23 19 17 15 13 12 12 10 11 11 10 9 8 9 9 9 8 8 9 8 8 9 9 9 9 10 11 12 13 13 12 12 11 11 10 10 13 15 14 13 12 11 9 7 12 17 15 13 10 8 9 7 5 6 6 6 4 3 3 3 5 6 5 3 2 3 3
28 26 24 24 25 25 24 24 25 26 27 27 26 24 23 23 23 22 19 17 16 14 11 11 11 10 10 11 10 10 8 8 9 9 9 9 9 9 9 9 8 7 8 9 10 11 12 11 11 12 10 11 11 11 13 14 15 14 13 12 8 6 13 18 16 17 16 11 9 9 8 7 6 4 3 3 5 6 7 7 6 5 4 5 6
27 26 26 26 26 25 24 25 27 27 26 26 24 21 20 20 19 18 15 14 13 13 11 10 9 8 9 10 10 10 9 8 8 9 10 10 10 10 10 9 8 7 8 9 9 10 11 11 11 11 10 10 11 11 12 13 15 14 14 13 8 6 15 18 15 17 19 18 15 12 10 8 7 5 3 4 6 7 7 7 7 7 7 6 6
26 25 26 27 26 26 25 25 27 27 27 27 24 20 19 18 17 17 16 14 12 11 10 9 7 6 7 8 9 9 9 9 8 8 9 10 11 11 11 11 10 9 9 9 9 10 10 11 11 10 9 10 11 12 12 12 13 14 14 14 10 10 17 16 13 15 18 21 20 16 13 10 9 9 5 4 5 5 6 8 8 7 6 5 5
25 25 26 26 26 26 25 25 25 25 26 25 23 21 20 18 17 17 17 16 13 12 11 9 7 5 5 7 6 6 7 8 8 7 6 7 9 11 11 10 10 10 10 8 9 9 10 10 10 9 8 9 11 13 12 10 12 14 14 15 12 14 19 17 15 17 17 19 20 18 15 11 11 12 7 3 3 3 6 8 8 7 4 3 4
26 26 26 26 26 25 24 25 25 23 23 24 22 21 20 17 15 15 14 14 13 12 11 10 8 7 6 6 5 4 4 6 7 6 5 4 5 8 9 9 9 10 9 8 7 8 9 9 10 9 9 9 10 12 12 10 11 14 15 15 12 13 18 19 17 18 17 17 18 18 16 14 13 12 9 5 3 4 5 6 9 8 4 2 3
Wind_Direction
165 159 157 157 158 157 156 154 149 147 143 140 137 133 129 125 120 115 114 114 112 111 112 115 119 122 127 138 148 152 152 151 149 149 149 149 148 148 145 138 131 126 122 115 106 97 88 90 97 97 94 93 96 98 96 93 92 90 88 84 80 80 75 68 66 61 57 52 52 66 80 77 75 84 92 95 99 100 99 97 100 105 101 97 97
164 159 157 156 157 158 158 155 152 148 144 141 138 136 132 128 123 118 116 114 113 113 114 115 119 123 126 132 139 145 148 150 151 154 155 151 148 147 141 135 132 130 126 117 109 100 92 89 95 102 101 98 99 98 97 95 92 90 87 82 80 78 69 63 63 62 58 54 49 54 72 78 77 85 94 96 97 99 100 101 103 105 103 101 99
161 158 157 156 158 159 160 157 153 150 146 143 140 139 135 132 126 121 118 115 115 115 117 117 119 122 125 129 133 137 142 147 151 155 152 146 143 142 136 134 133 131 126 120 114 106 98 87 86 102 105 102 102 101 98 94 90 87 84 80 82 78 66 60 58 60 61 54 47 48 63 75 75 83 90 94 100 102 100 102 104 107 114 112 105
160 158 157 156 159 160 160 158 155 152 148 145 143 142 139 136 129 125 122 119 118 117 118 118 120 120 123 127 131 135 140 144 147 149 145 140 139 139 134 132 132 129 127 125 121 111 103 89 84 98 105 105 105 103 98 93 89 86 82 78 82 81 67 61 56 58 59 51 46 45 55 70 73 79 86 90 100 104 103 107 107 109 123 125 116
159 158 157 157 159 161 161 159 157 153 151 148 146 146 143 139 132 128 126 124 122 120 120 119 121 121 123 125 131 137 141 143 143 142 139 135 135 136 135 134 135 132 131 131 126 117 107 95 90 97 105 108 106 102 99 96 93 88 84 80 82 85 75 65 56 54 54 48 43 41 46 65 75 78 81 85 95 101 103 108 113 117 129 132 126
162 161 158 158 159 161 162 161 159 155 153 151 149 149 145 140 135 132 129 127 125 124 123 122 122 122 123 124 129 136 140 143 141 140 137 133 130 130 131 133 136 137 137 136 131 124 111 100 95 99 106 109 106 103 102 100 96 92 89 85 83 84 82 74 63 51 48 45 40 34 35 56 72 75 77 78 82 89 95 104 115 122 132 136 134
167 164 159 159 159 160 162 161 160 157 155 154 152 151 148 143 140 137 133 130 129 128 127 126 125 124 124 125 127 133 139 142 142 141 138 134 129 129 129 127 129 134 139 139 135 129 117 104 98 102 107 108 108 107 105 102 98 95 92 89 86 85 85 79 72 57 50 47 38 28 28 51 67 71 77 78 76 79 88 100 108 116 128 138 143
170 165 160 158 158 159 162 162 161 159 157 156 155 153 150 146 144 141 137 134 132 131 130 128 127 126 127 127 128 131 137 140 141 141 141 139 134 132 132 131 131 134 137 142 142 135 125 110 102 105 108 109 112 111 107 104 101 98 96 95 95 97 88 77 71 62 54 47 36 24 28 54 65 69 77 80 79 77 81 88 96 107 119 131 142
171 164 159 157 158 159 161 162 161 161 159 158 157 156 153 150 149 146 142 139 136 134 132 131 130 129 128 128 129 131 136 139 140 140 141 140 137 135 133 134 135 136 137 144 145 141 131 115 107 109 110 113 115 113 110 107 105 102 100 102 106 100 84 78 72 63 55 43 29 19 30 57 65 70 74 73 75 74 76 78 83 92 101 110 117
169 162 158 158 157 158 159 160 161 162 161 160 160 159 156 154 153 150 147 144 139 136 134 133 132 131 128 128 128 128 132 136 138 138 136 133 134 135 130 128 129 131 130 136 143 146 138 119 112 114 116 118 118 115 113 111 109 106 104 109 109 96 83 79 74 63 52 38 24 18 33 61 65 72 77 74 75 72 73 73 74 77 81 88 91
167 162 159 159 157 157 158 159 160 162 163 164 163 161 160 157 155 153 151 147 142 138 136 135 133 131 128 127 126 126 129 132 135 133 130 128 128 127 122 118 118 117 115 120 130 142 145 129 118 118 121 122 121 118 116 115 113 110 109 113 106 93 84 78 72 62 51 36 23 20 35 62 67 73 80 77 77 75 74 73 74 74 74 76 76
165 162 159 158 156 155 157 159 161 164 167 167 166 163 162 159 158 156 154 149 144 140 139 137 135 131 128 127 125 124 127 130 132 131 128 126 125 122 119 114 110 107 106 109 112 123 142 140 127 124 126 126 124 121 119 118 117 116 116 120 113 93 82 77 71 61 51 33 19 19 29 53 65 71 79 78 78 78 78 77 77 77 75 74 74
163 161 160 158 154 154 157 159 163 166 168 169 167 165 164 162 160 158 155 150 146 143 142 139 135 131 129 127 124 123 123 125 127 127 126 124 123 120 117 113 107 103 101 102 102 105 123 140 137 131 131 129 126 124 123 123 122 121 123 130 126 101 88 84 76 64 50 28 19 22 26 44 63 67 76 79 79 78 79 79 79 78 77 76 75
164 162 161 158 153 153 157 161 164 167 170 170 169 167 165 164 161 158 155 151 149 148 145 139 132 130 130 127 125 123 121 121 122 123 120 118 116 113 110 107 104 101 97 95 98 99 104 126 138 137 135 133 130 128 128 128 127 127 130 137 139 116 106 94 81 68 47 31 31 32 29 40 60 64 69 76 79 80 79 79 80 79 79 79 76
166 164 161 157 153 153 158 162 165 169 171 172 170 168 167 165 162 159 157 155 153 150 145 136 130 129 129 128 128 125 124 122 120 120 117 113 109 106 103 100 98 95 94 92 93 95 94 106 129 139 139 136 135 135 134 132 132 133 136 145 159 134 109 94 83 72 46 36 35 31 30 38 52 63 66 72 79 81 81 81 82 82 81 80 78
168 165 161 157 155 156 161 164 166 169 171 172 172 169 168 166 163 161 159 157 155 151 145 135 131 131 130 129 130 128 129 127 124 124 119 115 109 106 101 95 94 94 94 93 91 91 91 98 116 135 142 140 138 141 140 137 136 135 142 158 169 135 100 90 83 73 48 32 25 24 29 36 42 57 66 66 71 78 80 82 83 83 82 81 79
170 167 163 159 158 159 163 165 166 167 169 171 172 171 169 168 164 163 161 158 155 151 144 137 135 133 131 130 131 131 131 130 128 131 126 120 113 110 105 96 94 94 95 94 92 92 97 104 109 128 143 143 141 145 145 141 139 138 150 171 162 118 95 88 78 66 46 26 18 20 27 33 34 45 66 67 66 73 77 81 82 82 83 82 80
170 169 165 163 162 163 165 165 166 166 169 171 173 172 170 169 166 165 161 158 155 150 146 141 139 136 135 133 135 135 131 130 131 134 131 123 119 117 116 111 103 95 93 93 94 96 100 109 113 122 139 146 145 148 148 144 144 145 157 180 164 128 106 89 75 61 40 23 16 17 22 30 32 35 60 72 68 71 73 77 79 80 81 82 83
172 171 168 167 165 166 167 166 167 167 170 170 171 171 170 170 166 164 160 158 154 152 152 147 143 141 141 140 139 138 133 132 133 135 131 125 124 125 122 121 117 104 97 95 98 101 103 108 120 127 133 147 151 152 152 148 147 148 158 184 177 141 119 98 77 57 32 18 15 16 19 26 32 34 49 74 72 69 73 75 76 78 78 80 83
174 174 171 171 169 169 170 168 169 170 171 168 168 170 171 170 165 164 160 158 157 158 157 151 149 148 149 148 144 142 138 137 138 137 131 128 128 128 127 125 126 118 108 106 108 109 114 113 121 135 134 144 153 156 156 151 149 146 156 183 181 147 123 107 82 53 27 16 18 22 27 31 37 41 45 67 75 70 74 77 78 80 79 79 81
176 177 175 174 173 173 173 170 172 172 172 168 167 169 171 169 166 165 161 161 162 162 160 157 156 152 152 151 147 145 143 141 139 136 131 131 131 130 130 128 131 131 126 122 128 128 127 124 124 137 140 141 150 157 158 154 150 142 159 181 175 156 122 107 86 51 21 15 23 31 38 41 43 47 45 56 79 76 73 79 83 84 85 85 83
177 178 178 177 176 176 176 174 174 173 172 170 169 170 172 169 167 167 164 166 166 165 164 162 157 150 149 147 143 143 142 140 136 133 131 131 132 131 127 126 134 142 150 146 146 145 134 130 130 140 144 139 145 156 157 154 148 139 159 175 167 161 124 98 83 55 22 20 29 36 40 43 46 50 47 52 75 85 85 86 87 88 90 91 90
179 180 180 180 181 180 179 178 177 175 174 173 173 172 172 169 168 169 168 169 168 169 169 164 157 152 149 143 141 140 138 136 133 133 130 131 131 126 123 127 140 146 157 159 151 145 136 133 135 145 144 138 143 154 156 152 143 131 149 162 158 162 121 87 75 45 27 26 22 25 29 34 40 46 50 52 60 80 102 107 99 94 94 95 95
181 183 184 184 185 184 182 182 180 179 178 177 177 173 170 169 171 173 173 172 169 171 172 165 158 153 147 142 141 138 134 133 134 136 131 131 125 118 121 132 143 147 157 164 156 144 138 139 139 144 139 136 143 153 156 150 140 128 139 152 159 166 122 87 62 1 358 5 360 8 21 28 31 37 47 55 67 77 91 114 122 109 104 101 99
183 187 189 188 188 188 187 185 183 183 182 179 178 175 171 173 175 176 175 174 171 171 174 167 158 150 145 143 141 136 136 139 138 137 130 124 115 111 125 137 145 148 150 154 150 142 143 144 137 135 131 130 141 152 156 153 149 143 143 154 171 185 173 171 259 316 325 337 353 9 21 29 28 33 47 66 88 90 83 111 132 129 121 111 106
186 192 193 192 191 191 189 188 187 185 185 182 182 179 176 178 178 176 176 177 174 172 172 165 157 151 148 145 145 147 148 147 139 132 125 118 112 116 130 140 143 141 140 139 137 142 145 142 136 135 133 133 142 152 160 163 165 158 148 162 184 193 202 220 260 304 325 353 12 20 23 24 20 28 54 91 104 102 95 113 137 145 136 123 118
191 197 198 196 195 193 188 188 190 190 188 186 187 184 182 184 183 179 176 176 174 172 168 162 160 156 153 152 156 159 150 142 135 127 124 121 120 127 138 143 139 136 138 136 136 142 143 140 139 141 142 145 148 153 162 168 170 163 156 172 187 190 198 222 260 284 310 2 14 21 25 19 11 16 48 108 126 120 118 123 139 152 146 135 131
201 201 201 199 198 195 190 190 195 198 192 188 191 188 187 189 189 183 174 173 173 170 167 162 163 160 156 158 161 160 147 142 139 129 133 142 139 138 145 147 143 144 148 146 145 148 146 144 145 149 152 156 155 155 160 166 169 168 170 181 195 201 204 222 243 253 286 341 7 26 32 20 11 11 28 89 121 118 130 136 140 153 151 145 145
204 203 203 202 200 198 192 194 200 201 194 192 194 190 189 187 186 181 171 172 170 167 169 164 163 164 160 158 161 162 151 149 149 140 155 161 154 147 146 152 158 158 154 152 154 157 155 153 154 159 163 164 165 163 165 169 172 176 180 187 205 217 218 221 231 246 277 309 7 37 45 40 33 33 37 59 64 70 124 133 136 152 152 152 156
194 201 206 207 206 205 199 199 204 202 196 197 196 190 190 186 181 177 171 171 168 169 171 164 166 168 161 158 163 163 150 151 163 170 175 169 166 156 145 153 164 166 159 153 156 161 162 162 163 169 172 171 174 177 176 176 183 192 189 194 214 221 221 218 223 238 242 190 100 62 66 62 60 62 55 62 60 56 106 115 115 143 146 145 147
173 186 208 217 216 213 209 206 206 204 198 200 198 190 189 184 178 177 174 170 167 167 164 165 173 170 162 161 160 153 148 159 173 177 177 175 177 165 149 156 164 168 164 157 158 163 168 171 174 178 181 178 180 186 185 180 189 196 187 196 216 217 219 217 221 220 187 145 114 81 87 87 82 79 72 74 70 68 99 101 92 101 111 112 111
161 172 204 223 223 218 214 210 206 202 197 196 192 185 184 176 172 175 174 171 170 169 168 170 172 167 167 169 161 153 152 161 164 168 174 176 176 163 158 168 172 174 173 170 166 165 173 181 183 187 190 186 186 192 197 187 183 185 180 194 215 215 218 216 215 202 181 176 149 106 107 106 97 90 90 94 87 85 102 102 93 89 94 96 92
162 175 192 213 220 216 212 210 207 206 200 192 183 178 177 172 169 170 169 169 170 172 176 179 174 167 176 178 171 168 164 159 154 168 180 178 177 171 165 169 175 181 183 179 175 173 178 189 194 194 193 192 191 195 201 186 173 174 178 195 220 217 210 203 197 189 196 223 176 125 116 107 103 104 106 109 105 100 102 106 99 87 90 95 96
164 176 185 198 209 210 210 209 207 209 200 183 173 169 169 170 169 166 163 163 166 168 174 181 184 182 184 182 175 172 172 163 160 173 183 184 192 185 176 181 181 182 187 184 182 187 191 196 198 199 195 192 193 193 190 178 168 171 173 190 214 207 197 195 190 197 228 200 138 122 113 103 104 115 120 119 117 112 105 111 117 109 104 102 104
171 177 180 185 195 203 204 204 205 208 195 174 168 167 167 169 169 168 167 167 169 171 173 179 186 190 188 183 176 174 176 180 180 180 179 188 202 196 186 199 195 184 189 192 188 187 194 196 198 207 206 193 190 181 174 171 164 161 161 183 197 191 191 185 179 215 203 121 120 123 123 120 117 118 121 115 105 105 108 117 127 131 128 121 119
178 178 171 170 181 188 188 191 192 190 182 170 166 167 167 167 170 172 172 173 175 176 176 175 180 188 188 183 182 182 183 192 197 190 185 195 209 209 202 203 204 192 189 194 191 181 184 196 198 204 203 191 182 172 164 156 146 149 155 171 171 170 179 159 134 177 135 117 116 123 131 133 134 131 126 115 100 99 109 118 122 124 124 122 129
175 170 161 158 164 168 171 176 170 163 165 164 163 165 165 167 171 172 171 173 175 178 178 175 178 187 190 188 190 194 199 205 210 208 201 202 212 216 211 201 202 200 190 190 193 183 181 190 185 183 188 188 178 168 160 148 148 160 159 162 157 158 166 138 121 129 115 118 120 122 141 138 138 149 142 131 120 116 121 129 134 132 123 110 108
163 158 157 154 154 155 160 164 160 157 160 161 160 163 166 168 169 168 167 167 168 171 171 171 180 190 192 195 201 206 208 212 216 215 206 207 216 216 212 204 198 198 193 192 195 190 183 176 172 168 170 182 179 169 162 155 158 163 159 164 162 156 154 126 122 117 109 118 118 124 161 161 157 165 162 155 138 139 150 160 156 148 146 130 291
156 155 155 151 149 150 154 157 155 155 159 160 159 163 166 165 161 160 162 161 159 159 162 168 177 181 184 189 198 202 200 202 207 204 197 205 213 209 207 204 196 194 197 199 197 194 186 174 178 182 168 170 179 172 168 164 161 160 160 162 154 149 152 134 123 109 104 110 107 108 137 160 171 154 194 204 169 179 192 199 199 201 230 262 274
157 155 152 151 151 151 152 154 153 153 156 158 160 161 162 159 159 161 162 158 153 153 156 162 166 168 171 173 180 187 188 190 193 189 185 193 200 197 197 200 201 201 204 206 199 192 189 180 183 192 178 170 173 172 171 168 161 157 158 157 150 148 149 138 122 104 99 97 95 93 92 100 74 55 56 302 197 209 217 226 235 239 246 262 274
161 155 151 152 153 154 153 153 155 156 156 158 159 159 159 160 163 163 158 153 150 150 148 150 155 156 157 161 171 181 185 185 185 182 179 182 191 187 184 192 205 208 202 199 195 188 187 183 182 188 183 176 173 169 170 170 165 160 159 156 151 148 144 134 117 103 94 87 87 90 83 71 65 75 84 91 129 174 220 232 238 244 245 257 276
163 156 154 154 156 156 156 156 158 159 158 158 159 159 161 161 159 156 152 148 145 141 138 138 142 143 148 156 164 173 171 164 166 170 172 174 182 183 181 188 199 200 194 189 188 188 185 182 187 188 180 180 179 171 169 172 174 171 166 159 150 144 141 136 125 109 98 92 91 87 81 81 90 94 99 106 114 121 149 224 236 246 252 264 281
163 159 159 159 160 160 159 160 158 156 155 156 157 157 157 155 153 151 149 144 137 135 134 131 133 136 140 143 145 151 146 143 152 162 169 171 175 181 185 193 193 188 189 189 188 189 186 182 192 196 186 184 184 179 177 178 181 180 171 160 153 147 140 140 141 127 110 107 107 95 83 84 92 101 115 117 114 123 146 194 231 255 272 275 276
161 161 164 165 164 163 163 160 155 153 153 153 154 153 152 151 151 150 144 136 131 132 134 130 132 134 131 127 126 130 129 129 142 153 159 163 170 177 187 198 190 182 187 193 193 192 189 184 190 200 200 195 191 191 191 187 188 187 175 160 156 155 147 148 150 143 135 131 131 113 90 85 83 87 101 114 113 96 121 169 211 263 279 261 261
161 163 166 166 164 163 162 159 156 154 153 152 153 153 153 154 156 153 144 137 135 137 140 137 137 136 128 122 115 115 119 122 132 141 141 145 157 169 180 187 185 182 184 189 193 194 192 188 191 199 205 207 204 204 200 192 191 197 193 174 165 167 161 155 144 140 151 151 151 145 103 93 87 84 91 99 97 86 80 85 85 73 35 6 343
163 164 166 166 164 163 162 159 158 157 156 155 156 156 158 159 160 157 150 146 143 144 146 140 137 133 125 124 119 113 114 117 125 134 135 135 147 159 167 172 176 176 177 183 188 195 195 189 188 195 202 209 213 216 208 198 191 197 209 202 195 195 174 164 148 138 146 150 155 163 135 112 99 86 90 91 87 79 62 59 69 67 41 36 41
163 165 167 167 166 167 165 162 160 159 159 159 160 161 162 160 158 156 153 150 145 143 141 133 130 126 123 126 124 122 122 121 127 135 137 136 141 152 160 163 170 169 172 184 187 190 193 187 183 191 202 209 212 218 213 205 199 199 208 210 215 212 180 174 164 151 149 148 158 166 148 125 107 91 95 100 87 76 63 65 78 73 56 49 45
164 168 170 170 169 170 168 165 163 162 162 163 163 164 162 158 157 156 155 156 152 144 138 132 129 124 123 125 124 126 130 131 135 143 147 147 148 151 153 152 157 162 165 178 183 183 187 187 189 196 207 211 211 216 215 212 211 210 210 206 204 186 178 179 176 166 156 149 154 158 143 126 118 119 127 102 83 71 67 70 67 57 53 53 51
168 173 174 172 172 171 169 168 168 167 165 164 164 163 161 162 166 167 163 163 162 148 139 136 131 126 123 120 119 124 131 136 137 143 152 157 160 162 159 150 148 156 160 169 177 182 186 189 196 202 206 205 205 209 211 217 220 219 213 205 190 170 175 176 174 174 161 150 152 152 144 139 135 137 141 104 82 60 52 50 36 24 28 40 45
171 175 176 175 175 173 171 171 172 170 166 166 166 164 166 171 175 172 164 160 159 151 147 149 149 146 133 123 121 121 128 138 138 136 140 152 166 171 170 160 151 153 155 164 179 183 182 181 186 190 189 192 199 201 202 211 219 217 211 203 191 173 174 174 173 177 168 155 155 153 150 154 148 146 151 118 88 63 48 39 25 14 8 13 16
172 175 176 176 176 175 173 173 174 171 166 165 164 162 167 175 175 169 159 153 155 156 157 160 161 155 139 129 141 147 141 146 145 142 141 148 173 179 174 166 163 167 164 164 183 192 187 180 179 181 181 185 193 196 196 202 211 211 207 205 202 188 183 182 180 181 176 165 159 153 149 152 149 149 157 150 120 79 56 34 23 22 18 4 351